Time,TemperatureF,DewpointF,PressureIn,WindDirection,WindDirectionDegrees,WindSpeedMPH,WindSpeedGustMPH,Humidity,HourlyPrecipIn,Conditions,Clouds,dailyrainin,SolarRadiationWatts/m^2,SoftwareType,DateUTC
2013-04-16 00:03:00,36.0,23.0,-100.00,WSW,240,4.0,11.0,59,0.00,,,0.00,0.000000,,2013-04-16 04:03:00,
2013-04-16 00:12:00,34.0,24.0,-100.00,SSW,200,3.0,8.0,66,0.00,,,0.00,0.000000,,2013-04-16 04:12:00,
2013-04-16 00:33:00,34.0,24.0,-100.00,SSW,200,3.0,8.0,66,0.00,,,0.00,0.000000,,2013-04-16 04:33:00,
2013-04-16 00:42:00,34.0,24.0,-100.00,SSW,200,3.0,8.0,66,0.00,,,0.00,0.000000,,2013-04-16 04:42:00,
2013-04-16 00:53:00,34.0,24.0,-100.00,SSW,200,3.0,8.0,66,0.00,,,0.00,0.000000,,2013-04-16 04:53:00,
2013-04-16 01:02:00,34.0,24.0,-100.00,SSW,200,3.0,8.0,66,0.00,,,0.00,0.000000,,2013-04-16 05:02:00,
2013-04-16 01:12:00,34.0,24.0,-100.00,SW,217,3.0,6.0,67,0.00,,,0.00,0.000000,,2013-04-16 05:12:00,
2013-04-16 01:32:00,34.0,24.0,-100.00,SW,217,3.0,6.0,67,0.00,,,0.00,0.000000,,2013-04-16 05:32:00,
2013-04-16 01:42:00,34.0,24.0,-100.00,SW,217,3.0,6.0,67,0.00,,,0.00,0.000000,,2013-04-16 05:42:00,
2013-04-16 01:52:00,34.0,24.0,-100.00,SW,217,3.0,6.0,67,0.00,,,0.00,0.000000,,2013-04-16 05:52:00,
2013-04-16 02:02:00,34.0,24.0,-100.00,SW,217,3.0,6.0,67,0.00,,,0.00,0.000000,,2013-04-16 06:02:00,
2013-04-16 02:12:00,34.0,24.0,-100.00,South,185,3.0,6.0,67,0.00,,,0.00,0.000000,,2013-04-16 06:12:00,
2013-04-16 02:32:00,34.0,24.0,-100.00,South,185,3.0,6.0,67,0.00,,,0.00,0.000000,,2013-04-16 06:32:00,
2013-04-16 02:42:00,34.0,24.0,-100.00,South,185,3.0,6.0,67,0.00,,,0.00,0.000000,,2013-04-16 06:42:00,
2013-04-16 02:52:00,34.0,24.0,-100.00,South,185,3.0,6.0,67,0.00,,,0.00,0.000000,,2013-04-16 06:52:00,
2013-04-16 03:02:00,34.0,24.0,-100.00,South,185,3.0,6.0,67,0.00,,,0.00,0.000000,,2013-04-16 07:02:00,
2013-04-16 03:12:00,34.0,25.0,-100.00,SW,217,4.0,6.0,68,0.00,,,0.00,0.000000,,2013-04-16 07:12:00,
2013-04-16 03:32:00,34.0,25.0,-100.00,SW,217,4.0,6.0,68,0.00,,,0.00,0.000000,,2013-04-16 07:32:00,
2013-04-16 03:42:00,34.0,25.0,-100.00,SW,217,4.0,6.0,68,0.00,,,0.00,0.000000,,2013-04-16 07:42:00,
2013-04-16 03:53:00,34.0,25.0,-100.00,SW,217,4.0,6.0,68,0.00,,,0.00,0.000000,,2013-04-16 07:53:00,
2013-04-16 04:02:00,34.0,25.0,-100.00,SW,217,4.0,6.0,68,0.00,,,0.00,0.000000,,2013-04-16 08:02:00,
2013-04-16 04:12:00,34.0,25.0,-100.00,SSW,211,3.0,8.0,68,0.00,,,0.00,0.000000,,2013-04-16 08:12:00,
2013-04-16 04:42:00,34.0,25.0,-100.00,SSW,211,3.0,8.0,68,0.00,,,0.00,0.000000,,2013-04-16 08:42:00,
2013-04-16 04:52:00,34.0,25.0,-100.00,SSW,211,3.0,8.0,68,0.00,,,0.00,0.000000,,2013-04-16 08:52:00,
2013-04-16 05:02:00,34.0,25.0,-100.00,SSW,211,3.0,8.0,68,0.00,,,0.00,0.000000,,2013-04-16 09:02:00,
2013-04-16 05:12:00,34.0,25.0,-100.00,SW,234,3.0,7.0,70,0.00,,,0.00,0.000000,,2013-04-16 09:12:00,
2013-04-16 05:33:00,34.0,25.0,-100.00,SW,234,3.0,7.0,70,0.00,,,0.00,0.000000,,2013-04-16 09:33:00,
2013-04-16 05:43:00,34.0,25.0,-100.00,SW,234,3.0,7.0,70,0.00,,,0.00,0.000000,,2013-04-16 09:43:00,
2013-04-16 05:53:00,34.0,25.0,-100.00,SW,234,3.0,7.0,70,0.00,,,0.00,0.000000,,2013-04-16 09:53:00,
2013-04-16 06:03:00,34.0,25.0,-100.00,SW,234,3.0,7.0,70,0.00,,,0.00,0.000000,,2013-04-16 10:03:00,
2013-04-16 06:12:00,34.0,26.0,-100.00,SW,228,3.0,7.0,71,0.00,,,0.00,0.000000,,2013-04-16 10:12:00,
2013-04-16 06:33:00,34.0,26.0,-100.00,SW,228,3.0,7.0,71,0.00,,,0.00,0.000000,,2013-04-16 10:33:00,
2013-04-16 06:43:00,34.0,26.0,-100.00,SW,228,3.0,7.0,71,0.00,,,0.00,0.000000,,2013-04-16 10:43:00,
2013-04-16 06:53:00,34.0,26.0,-100.00,SW,228,3.0,7.0,71,0.00,,,0.00,0.000000,,2013-04-16 10:53:00,
2013-04-16 07:02:00,34.0,26.0,-100.00,SW,228,3.0,7.0,71,0.00,,,0.00,0.000000,,2013-04-16 11:02:00,
2013-04-16 07:12:00,34.0,26.0,-100.00,SW,233,3.0,8.0,72,0.00,,,0.00,1.000000,,2013-04-16 11:12:00,
2013-04-16 07:32:00,34.0,26.0,-100.00,SW,233,3.0,8.0,72,0.00,,,0.00,1.000000,,2013-04-16 11:32:00,
2013-04-16 07:42:00,34.0,26.0,-100.00,SW,233,3.0,8.0,72,0.00,,,0.00,1.000000,,2013-04-16 11:42:00,
2013-04-16 07:53:00,34.0,26.0,-100.00,SW,233,3.0,8.0,72,0.00,,,0.00,1.000000,,2013-04-16 11:53:00,
2013-04-16 08:02:00,34.0,26.0,-100.00,SW,233,3.0,8.0,72,0.00,,,0.00,1.000000,,2013-04-16 12:02:00,
2013-04-16 08:12:00,35.0,27.0,-100.00,West,260,4.0,9.0,72,0.00,,,0.00,22.000000,,2013-04-16 12:12:00,
2013-04-16 08:42:00,35.0,27.0,-100.00,West,260,4.0,9.0,72,0.00,,,0.00,22.000000,,2013-04-16 12:42:00,
2013-04-16 08:52:00,35.0,27.0,-100.00,West,260,4.0,9.0,72,0.00,,,0.00,22.000000,,2013-04-16 12:52:00,
2013-04-16 09:02:00,35.0,27.0,-100.00,West,260,4.0,9.0,72,0.00,,,0.00,22.000000,,2013-04-16 13:02:00,
2013-04-16 09:12:00,37.0,28.0,-100.00,West,277,8.0,12.0,69,0.00,,,-99.99,111.000000,,2013-04-16 13:12:00,
2013-04-16 09:32:00,37.0,28.0,-100.00,West,277,8.0,12.0,69,0.00,,,-99.99,111.000000,,2013-04-16 13:32:00,
2013-04-16 09:42:00,37.0,28.0,-100.00,West,277,8.0,12.0,69,0.00,,,-99.99,111.000000,,2013-04-16 13:42:00,
2013-04-16 09:52:00,37.0,28.0,-100.00,West,277,8.0,12.0,69,0.00,,,-99.99,111.000000,,2013-04-16 13:52:00,
2013-04-16 10:02:00,37.0,28.0,-100.00,West,277,8.0,12.0,69,0.00,,,-99.99,111.000000,,2013-04-16 14:02:00,
2013-04-16 10:12:00,38.0,27.0,-100.00,West,278,8.0,14.0,63,0.00,,,0.00,232.000000,,2013-04-16 14:12:00,
2013-04-16 10:32:00,38.0,27.0,-100.00,West,278,8.0,14.0,63,0.00,,,0.00,232.000000,,2013-04-16 14:32:00,
2013-04-16 10:42:00,38.0,27.0,-100.00,West,278,8.0,14.0,63,0.00,,,0.00,232.000000,,2013-04-16 14:42:00,
2013-04-16 10:52:00,38.0,27.0,-100.00,West,278,8.0,14.0,63,0.00,,,0.00,232.000000,,2013-04-16 14:52:00,
2013-04-16 11:02:00,38.0,27.0,-100.00,West,278,8.0,14.0,63,0.00,,,0.00,232.000000,,2013-04-16 15:02:00,
2013-04-16 11:12:00,40.0,26.0,-100.00,WNW,282,8.0,14.0,58,0.00,,,0.00,278.000000,,2013-04-16 15:12:00,
2013-04-16 11:33:00,40.0,26.0,-100.00,WNW,282,8.0,14.0,58,0.00,,,0.00,278.000000,,2013-04-16 15:33:00,
2013-04-16 11:43:00,40.0,26.0,-100.00,WNW,282,8.0,14.0,58,0.00,,,0.00,278.000000,,2013-04-16 15:43:00,
2013-04-16 11:53:00,40.0,26.0,-100.00,WNW,282,8.0,14.0,58,0.00,,,0.00,278.000000,,2013-04-16 15:53:00,
2013-04-16 12:03:00,40.0,26.0,-100.00,WNW,282,8.0,14.0,58,0.00,,,0.00,278.000000,,2013-04-16 16:03:00,
2013-04-16 12:12:00,43.0,26.0,-100.00,NW,305,6.0,15.0,51,0.00,,,0.00,435.000000,,2013-04-16 16:12:00,
2013-04-16 12:33:00,43.0,26.0,-100.00,NW,305,6.0,15.0,51,0.00,,,0.00,435.000000,,2013-04-16 16:33:00,
2013-04-16 12:42:00,43.0,26.0,-100.00,NW,305,6.0,15.0,51,0.00,,,0.00,435.000000,,2013-04-16 16:42:00,
2013-04-16 12:53:00,43.0,26.0,-100.00,NW,305,6.0,15.0,51,0.00,,,0.00,435.000000,,2013-04-16 16:53:00,
2013-04-16 13:02:00,43.0,26.0,-100.00,NW,305,6.0,15.0,51,0.00,,,0.00,435.000000,,2013-04-16 17:02:00,
2013-04-16 13:12:00,41.0,27.0,-100.00,WNW,303,7.0,18.0,58,0.00,,,0.00,320.000000,,2013-04-16 17:12:00,
2013-04-16 13:33:00,41.0,27.0,-100.00,WNW,303,7.0,18.0,58,0.00,,,0.00,320.000000,,2013-04-16 17:33:00,
2013-04-16 13:43:00,41.0,27.0,-100.00,WNW,303,7.0,18.0,58,0.00,,,0.00,320.000000,,2013-04-16 17:43:00,
2013-04-16 13:53:00,41.0,27.0,-100.00,WNW,303,7.0,18.0,58,0.00,,,0.00,320.000000,,2013-04-16 17:53:00,
2013-04-16 14:02:00,41.0,27.0,-100.00,WNW,303,7.0,18.0,58,0.00,,,0.00,320.000000,,2013-04-16 18:02:00,
2013-04-16 14:12:00,44.0,26.0,-100.00,West,277,6.0,16.0,49,0.00,,,0.00,458.000000,,2013-04-16 18:12:00,
2013-04-16 14:32:00,44.0,26.0,-100.00,West,277,6.0,16.0,49,0.00,,,0.00,458.000000,,2013-04-16 18:32:00,
2013-04-16 14:43:00,44.0,26.0,-100.00,West,277,6.0,16.0,49,0.00,,,0.00,458.000000,,2013-04-16 18:43:00,
2013-04-16 14:52:00,44.0,26.0,-100.00,West,277,6.0,16.0,49,0.00,,,0.00,458.000000,,2013-04-16 18:52:00,
2013-04-16 15:02:00,44.0,26.0,-100.00,West,277,6.0,16.0,49,0.00,,,0.00,458.000000,,2013-04-16 19:02:00,
2013-04-16 15:12:00,44.0,25.0,-100.00,NW,311,6.0,16.0,47,0.00,,,0.00,459.000000,,2013-04-16 19:12:00,
2013-04-16 15:32:00,44.0,25.0,-100.00,NW,311,6.0,16.0,47,0.00,,,0.00,459.000000,,2013-04-16 19:32:00,
2013-04-16 15:42:00,44.0,25.0,-100.00,NW,311,6.0,16.0,47,0.00,,,0.00,459.000000,,2013-04-16 19:42:00,
2013-04-16 15:52:00,44.0,25.0,-100.00,NW,311,6.0,16.0,47,0.00,,,0.00,459.000000,,2013-04-16 19:52:00,
2013-04-16 16:02:00,44.0,25.0,-100.00,NW,311,6.0,16.0,47,0.00,,,0.00,459.000000,,2013-04-16 20:02:00,
2013-04-16 16:12:00,46.0,26.0,-100.00,NW,321,7.0,17.0,45,0.00,,,0.00,476.000000,,2013-04-16 20:12:00,
2013-04-16 16:32:00,46.0,26.0,-100.00,NW,321,7.0,17.0,45,0.00,,,0.00,476.000000,,2013-04-16 20:32:00,
2013-04-16 16:42:00,46.0,26.0,-100.00,NW,321,7.0,17.0,45,0.00,,,0.00,476.000000,,2013-04-16 20:42:00,
2013-04-16 16:52:00,46.0,26.0,-100.00,NW,321,7.0,17.0,45,0.00,,,0.00,476.000000,,2013-04-16 20:52:00,
2013-04-16 17:02:00,46.0,26.0,-100.00,NW,321,7.0,17.0,45,0.00,,,0.00,476.000000,,2013-04-16 21:02:00,
2013-04-16 17:12:00,46.0,23.0,-100.00,NNW,330,8.0,17.0,40,0.00,,,0.00,723.000000,,2013-04-16 21:12:00,
2013-04-16 17:33:00,46.0,23.0,-100.00,NNW,330,8.0,17.0,40,0.00,,,0.00,723.000000,,2013-04-16 21:33:00,
2013-04-16 17:43:00,46.0,23.0,-100.00,NNW,330,8.0,17.0,40,0.00,,,0.00,723.000000,,2013-04-16 21:43:00,
2013-04-16 17:53:00,46.0,23.0,-100.00,NNW,330,8.0,17.0,40,0.00,,,0.00,723.000000,,2013-04-16 21:53:00,
2013-04-16 18:02:00,46.0,23.0,-100.00,NNW,330,8.0,17.0,40,0.00,,,0.00,723.000000,,2013-04-16 22:02:00,
2013-04-16 18:12:00,46.0,23.0,-100.00,NW,312,6.0,16.0,40,0.00,,,0.00,537.000000,,2013-04-16 22:12:00,
2013-04-16 18:43:00,46.0,23.0,-100.00,NW,312,6.0,16.0,40,0.00,,,0.00,537.000000,,2013-04-16 22:43:00,
2013-04-16 18:52:00,46.0,23.0,-100.00,NW,312,6.0,16.0,40,0.00,,,0.00,537.000000,,2013-04-16 22:52:00,
2013-04-16 19:02:00,46.0,23.0,-100.00,NW,312,6.0,16.0,40,0.00,,,0.00,537.000000,,2013-04-16 23:02:00,
2013-04-16 19:12:00,44.0,23.0,-100.00,NW,306,7.0,14.0,44,0.00,,,0.00,292.000000,,2013-04-16 23:12:00,
2013-04-16 19:32:00,44.0,23.0,-100.00,NW,306,7.0,14.0,44,0.00,,,0.00,292.000000,,2013-04-16 23:32:00,
2013-04-16 19:43:00,44.0,23.0,-100.00,NW,306,7.0,14.0,44,0.00,,,0.00,292.000000,,2013-04-16 23:43:00,
2013-04-16 19:52:00,44.0,23.0,-100.00,NW,306,7.0,14.0,44,0.00,,,0.00,292.000000,,2013-04-16 23:52:00,
2013-04-16 20:02:00,44.0,23.0,-100.00,NW,306,7.0,14.0,44,0.00,,,0.00,292.000000,,2013-04-17 00:02:00,
2013-04-16 20:12:00,40.0,24.0,-100.00,NNW,340,6.0,11.0,53,0.00,,,-99.99,135.000000,,2013-04-17 00:12:00,
2013-04-16 20:32:00,40.0,24.0,-100.00,NNW,340,6.0,11.0,53,0.00,,,-99.99,135.000000,,2013-04-17 00:32:00,
2013-04-16 20:42:00,40.0,24.0,-100.00,NNW,340,6.0,11.0,53,0.00,,,-99.99,135.000000,,2013-04-17 00:42:00,
2013-04-16 20:52:00,40.0,24.0,-100.00,NNW,340,6.0,11.0,53,0.00,,,-99.99,135.000000,,2013-04-17 00:52:00,
2013-04-16 21:02:00,40.0,24.0,-100.00,NNW,340,6.0,11.0,53,0.00,,,-99.99,135.000000,,2013-04-17 01:02:00,
2013-04-16 21:12:00,34.0,25.0,-100.00,NNE,20,3.0,9.0,70,0.00,,,0.00,7.000000,,2013-04-17 01:12:00,
2013-04-16 21:32:00,34.0,25.0,-100.00,NNE,20,3.0,9.0,70,0.00,,,0.00,7.000000,,2013-04-17 01:32:00,
2013-04-16 21:42:00,34.0,25.0,-100.00,NNE,20,3.0,9.0,70,0.00,,,0.00,7.000000,,2013-04-17 01:42:00,
2013-04-16 21:52:00,34.0,25.0,-100.00,NNE,20,3.0,9.0,70,0.00,,,0.00,7.000000,,2013-04-17 01:52:00,
2013-04-16 22:02:00,34.0,25.0,-100.00,NNE,20,3.0,9.0,70,0.00,,,0.00,7.000000,,2013-04-17 02:02:00,
2013-04-16 22:12:00,32.0,25.0,-100.00,North,7,3.0,7.0,76,0.00,,,0.00,0.000000,,2013-04-17 02:12:00,
2013-04-16 22:42:00,32.0,25.0,-100.00,North,7,3.0,7.0,76,0.00,,,0.00,0.000000,,2013-04-17 02:42:00,
2013-04-16 22:52:00,32.0,25.0,-100.00,North,7,3.0,7.0,76,0.00,,,0.00,0.000000,,2013-04-17 02:52:00,
2013-04-16 23:02:00,32.0,25.0,-100.00,North,7,3.0,7.0,76,0.00,,,0.00,0.000000,,2013-04-17 03:02:00,
2013-04-16 23:12:00,31.0,24.0,-100.00,NNW,342,4.0,8.0,75,0.00,,,0.00,0.000000,,2013-04-17 03:12:00,
2013-04-16 23:42:00,31.0,24.0,-100.00,NNW,342,4.0,8.0,75,0.00,,,0.00,0.000000,,2013-04-17 03:42:00,
2013-04-16 23:53:00,31.0,24.0,-100.00,NNW,342,4.0,8.0,75,0.00,,,0.00,0.000000,,2013-04-17 03:53:00,